When you browse on this site, cookies collect data to enhance your experience and personalize the content and advertising you see.
Visit our Privacy Policy to learn more. By continuing to use the site, you agree to this use of cookies and data.
  • In Slovakia
  • List of Countries
  • For 7 days
  • Water Temperature
  • Satellite Maps
  • Weather Map
  • Weather Widgets
  • user-avatar
    Login

    Hourly Weather Curai

    Today, 22 April, Monday

    Time Temperature Precipitation Wind Pressure Humidity
    00:00 -1°C° 0 mm 1 mps 648 mmHg 92%
    01:00 -2°C° 0 mm 1 mps 648 mmHg 91%
    02:00 -2°C° 0 mm 1 mps 648 mmHg 91%
    03:00 -2°C° 0 mm 1 mps 647 mmHg 92%
    04:00 -2°C° 0 mm 1 mps 648 mmHg 90%
    05:00 -2°C° 0 mm 1 mps 648 mmHg 87%
    06:00 -1°C° 0 mm 1 mps 648 mmHg 85%
    07:00 -2°C° 0 mm 2 mps 648 mmHg 81%
    08:00 -1°C° 0 mm 2 mps 649 mmHg 77%
    09:00 +1°C° 0 mm 3 mps 649 mmHg 74%
    10:00 +1°C° 0.1 mm 3 mps 649 mmHg 75%
    11:00 0°C° 0.1 mm 3 mps 649 mmHg 77%
    12:00 0°C° 0.1 mm 3 mps 649 mmHg 78%
    13:00 0°C° 0.1 mm 3 mps 649 mmHg 79%
    14:00 0°C° 0.1 mm 3 mps 649 mmHg 80%
    15:00 0°C° 0.1 mm 3 mps 649 mmHg 80%
    16:00 +1°C° 0.1 mm 2 mps 649 mmHg 81%
    17:00 -1°C° 0.1 mm 2 mps 649 mmHg 83%
    18:00 +1°C° 0.1 mm 1 mps 649 mmHg 84%
    19:00 0°C° 0 mm 1 mps 649 mmHg 85%
    20:00 0°C° 0 mm 1 mps 649 mmHg 86%
    21:00 -1°C° 0 mm 0 mps 649 mmHg 88%
    22:00 -2°C° 0 mm 0 mps 649 mmHg 87%
    23:00 -2°C° 0 mm 0 mps 649 mmHg 86%

    Tomorrow, 23 April, Tuesday

    Time Temperature Precipitation Wind Pressure Humidity
    00:00 -2°C° 0 mm 0 mps 649 mmHg 85%
    01:00 -1°C° 0 mm 1 mps 649 mmHg 82%
    02:00 -1°C° 0 mm 1 mps 649 mmHg 80%
    03:00 -2°C° 0 mm 1 mps 650 mmHg 78%
    04:00 -1°C° 0 mm 1 mps 650 mmHg 74%
    05:00 -1°C° 0 mm 1 mps 650 mmHg 70%
    06:00 0°C° 0 mm 1 mps 651 mmHg 67%
    07:00 -1°C° 0 mm 2 mps 651 mmHg 61%
    08:00 +2°C° 0 mm 2 mps 652 mmHg 56%
    09:00 +3°C° 0 mm 2 mps 653 mmHg 50%
    10:00 +4°C° 0 mm 2 mps 653 mmHg 51%
    11:00 +3°C° 0 mm 3 mps 653 mmHg 51%
    12:00 +4°C° 0 mm 3 mps 654 mmHg 51%
    13:00 +4°C° 0 mm 3 mps 654 mmHg 53%
    14:00 +4°C° 0 mm 3 mps 653 mmHg 55%
    15:00 +4°C° 0 mm 2 mps 653 mmHg 56%
    16:00 +4°C° 0 mm 2 mps 653 mmHg 60%
    17:00 +4°C° 0 mm 1 mps 653 mmHg 63%
    18:00 +3°C° 0 mm 1 mps 653 mmHg 67%
    19:00 +2°C° 0 mm 1 mps 653 mmHg 69%
    20:00 +1°C° 0 mm 1 mps 653 mmHg 72%
    21:00 -1°C° 0 mm 2 mps 653 mmHg 74%
    22:00 -1°C° 0 mm 2 mps 653 mmHg 74%
    23:00 -1°C° 0 mm 2 mps 653 mmHg 73%

    Day after tomorrow, 24 April, Wednesday

    Time Temperature Precipitation Wind Pressure Humidity
    00:00 -1°C° 0 mm 2 mps 653 mmHg 73%
    01:00 -1°C° 0 mm 2 mps 653 mmHg 71%
    02:00 -1°C° 0 mm 2 mps 653 mmHg 70%
    03:00 -1°C° 0 mm 2 mps 653 mmHg 68%
    04:00 -1°C° 0 mm 2 mps 653 mmHg 65%
    05:00 -1°C° 0 mm 2 mps 654 mmHg 63%
    06:00 +1°C° 0 mm 2 mps 654 mmHg 60%
    07:00 +3°C° 0 mm 2 mps 654 mmHg 54%
    08:00 +5°C° 0 mm 2 mps 655 mmHg 47%
    09:00 +7°C° 0 mm 2 mps 656 mmHg 40%
    10:00 +7°C° 0 mm 2 mps 655 mmHg 41%
    11:00 +7°C° 0 mm 3 mps 655 mmHg 43%
    12:00 +8°C° 0 mm 3 mps 655 mmHg 44%
    13:00 +7°C° 0.1 mm 3 mps 655 mmHg 47%
    14:00 +7°C° 0.1 mm 2 mps 654 mmHg 50%
    15:00 +7°C° 0.1 mm 2 mps 654 mmHg 54%
    16:00 +6°C° 0.1 mm 2 mps 654 mmHg 59%
    17:00 +6°C° 0.1 mm 1 mps 654 mmHg 64%
    18:00 +5°C° 0.1 mm 1 mps 653 mmHg 69%
    19:00 +5°C° 0 mm 1 mps 653 mmHg 71%
    20:00 +4°C° 0 mm 1 mps 653 mmHg 72%
    21:00 +4°C° 0 mm 1 mps 653 mmHg 74%
    22:00 +3°C° 0 mm 1 mps 653 mmHg 73%
    23:00 +2°C° 0 mm 2 mps 653 mmHg 71%

    25 April, Thursday

    Time Temperature Precipitation Wind Pressure Humidity
    00:00 +2°C° 0 mm 2 mps 653 mmHg 70%
    01:00 +2°C° 0 mm 2 mps 653 mmHg 67%
    02:00 +1°C° 0 mm 2 mps 653 mmHg 64%
    03:00 +1°C° 0 mm 2 mps 653 mmHg 61%
    04:00 +1°C° 0 mm 2 mps 653 mmHg 58%
    05:00 +2°C° 0 mm 2 mps 653 mmHg 54%
    06:00 +2°C° 0 mm 2 mps 653 mmHg 51%
    07:00 +4°C° 0 mm 2 mps 654 mmHg 47%
    08:00 +7°C° 0 mm 1 mps 655 mmHg 42%
    09:00 +9°C° 0 mm 1 mps 656 mmHg 38%
    10:00 +9°C° 0 mm 2 mps 655 mmHg 41%
    11:00 +9°C° 0 mm 2 mps 655 mmHg 43%
    12:00 +9°C° 0 mm 3 mps 655 mmHg 46%
    13:00 +9°C° 0.2 mm 3 mps 655 mmHg 50%
    14:00 +8°C° 0.2 mm 2 mps 654 mmHg 55%
    15:00 +8°C° 0.2 mm 2 mps 654 mmHg 59%
    16:00 +8°C° 0.5 mm 1 mps 654 mmHg 65%
    17:00 +7°C° 0.5 mm 1 mps 654 mmHg 71%
    18:00 +6°C° 0.5 mm 0 mps 654 mmHg 76%
    19:00 +6°C° 0.3 mm 1 mps 654 mmHg 77%
    20:00 +6°C° 0.3 mm 1 mps 654 mmHg 77%
    21:00 +6°C° 0.3 mm 1 mps 654 mmHg 78%
    22:00 +5°C° 0 mm 1 mps 654 mmHg 77%
    23:00 +4°C° 0 mm 2 mps 654 mmHg 75%

    26 April, Friday

    Time Temperature Precipitation Wind Pressure Humidity
    00:00 +3°C° 0 mm 2 mps 653 mmHg 74%
    01:00 +3°C° 0 mm 2 mps 653 mmHg 72%
    02:00 +3°C° 0 mm 2 mps 653 mmHg 69%
    03:00 +2°C° 0 mm 2 mps 653 mmHg 67%
    04:00 +3°C° 0 mm 2 mps 653 mmHg 65%
    05:00 +3°C° 0 mm 2 mps 653 mmHg 63%
    06:00 +3°C° 0 mm 2 mps 653 mmHg 60%
    07:00 +5°C° 0 mm 2 mps 654 mmHg 57%
    08:00 +8°C° 0 mm 1 mps 654 mmHg 54%
    09:00 +10°C° 0 mm 1 mps 655 mmHg 51%
    10:00 +10°C° 0 mm 2 mps 655 mmHg 51%
    11:00 +12°C° 0 mm 2 mps 655 mmHg 50%
    12:00 +11°C° 0 mm 3 mps 655 mmHg 50%
    13:00 +11°C° 0 mm 3 mps 654 mmHg 53%
    14:00 +11°C° 0 mm 3 mps 654 mmHg 56%
    15:00 +10°C° 0 mm 3 mps 654 mmHg 60%
    16:00 +9°C° 0 mm 3 mps 653 mmHg 64%
    17:00 +8°C° 0 mm 2 mps 653 mmHg 69%
    18:00 +8°C° 0 mm 2 mps 653 mmHg 73%
    19:00 +7°C° 0 mm 2 mps 653 mmHg 75%
    20:00 +6°C° 0 mm 2 mps 653 mmHg 76%
    21:00 +6°C° 0 mm 1 mps 653 mmHg 77%
    22:00 +5°C° 0 mm 1 mps 653 mmHg 75%
    23:00 +5°C° 0 mm 1 mps 652 mmHg 73%

    27 April, Saturday

    Time Temperature Precipitation Wind Pressure Humidity
    00:00 +4°C° 0 mm 2 mps 652 mmHg 71%
    01:00 +4°C° 0 mm 2 mps 652 mmHg 69%
    02:00 +4°C° 0 mm 2 mps 652 mmHg 67%
    03:00 +4°C° 0 mm 2 mps 652 mmHg 65%
    04:00 +4°C° 0 mm 2 mps 652 mmHg 63%
    05:00 +5°C° 0 mm 2 mps 652 mmHg 61%
    06:00 +5°C° 0 mm 2 mps 652 mmHg 59%
    07:00 +7°C° 0 mm 2 mps 653 mmHg 54%
    08:00 +9°C° 0 mm 2 mps 654 mmHg 48%
    09:00 +12°C° 0 mm 2 mps 654 mmHg 42%
    10:00 +12°C° 0 mm 3 mps 654 mmHg 41%
    11:00 +12°C° 0 mm 3 mps 654 mmHg 40%
    12:00 +13°C° 0 mm 4 mps 654 mmHg 39%
    13:00 +13°C° 0 mm 4 mps 653 mmHg 40%
    14:00 +13°C° 0 mm 4 mps 653 mmHg 42%
    15:00 +13°C° 0 mm 4 mps 653 mmHg 43%
    16:00 +11°C° 0 mm 3 mps 652 mmHg 50%
    17:00 +10°C° 0 mm 3 mps 652 mmHg 57%
    18:00 +9°C° 0 mm 2 mps 652 mmHg 64%
    19:00 +8°C° 0 mm 2 mps 651 mmHg 65%
    20:00 +7°C° 0 mm 2 mps 651 mmHg 67%
    21:00 +6°C° 0 mm 2 mps 651 mmHg 68%
    22:00 +6°C° 0 mm 2 mps 651 mmHg 66%
    23:00 +5°C° 0 mm 2 mps 651 mmHg 64%
    Show more